Location: La Pernelle
(49.6188°N, 1.2999°W)
Time: 09:23:30
(UTC+00:00)

Cosmos 1802 Rocket - Pass Details

Date: 12 June 2021
Orbit: 955 x 1010 km, 82.9° (Epoch: 26 July)

Event Time Altitude Azimuth Distance (km) Brightness Sun altitude
Rises 22:21:28 0° 349° (N) 3,667 8.7 -13.6°
Reaches altitude 10° 22:23:58 10° 348° (NNW) 2,723 7.7 -13.8°
Maximum altitude 22:30:12 78° 264° (W) 1,004 4.1 -14.2°
Enters shadow 22:35:02 18° 180° (S) 2,211 5.3 -14.5°
